CW1084 Weather Reports


Display with metric or nautical units.
time (UTC)temp
F
wind
direction
speed
MPH
gust
MPH
rain 1hr
in
rain 24hr
in
rain mn
in
humidity
%
barometer
mb
20260831041932 83 156 0.0 0.0 0.00 0.00 0.00 100 1017.0
20260831041643 83 156 0.0 0.0 0.00 0.00 0.00 100 1017.1
20260831040925 83 156 0.0 0.0 0.00 0.00 0.00 100 1017.2
20260831040640 83 156 0.0 0.0 0.00 0.00 0.00 100 1017.2
20260831040147 83 156 0.0 0.0 0.00 0.00 0.00 100 1017.2
20260831035408 83 156 0.0 4.0 0.00 0.00 0.00 100 1017.3
20260831034912 83 156 0.0 4.0 0.00 0.00 0.00 100 1017.3
20260831034633 83 156 0.0 0.0 0.00 0.00 0.00 100 1017.4
20260831034134 84 156 0.0 0.0 0.00 0.00 0.00 100 1017.5
20260831033352 84 156 0.0 0.0 0.00 0.00 0.00 100 1017.6
20260831032838 84 156 0.0 0.0 0.00 0.00 0.00 100 1017.6
20260831032331 84 156 0.0 0.0 0.00 0.00 0.00 100 1017.7
20260831031821 84 156 0.0 0.0 0.00 0.00 0.00 100 1017.8
20260831031543 84 156 0.0 0.0 0.00 0.00 0.00 100 1017.8
20260831031039 84 156 0.0 0.0 0.00 0.00 0.00 100 1017.7
20260831030312 84 156 0.0 0.0 0.00 0.00 0.00 100 1017.9
20260831030252 84 156 0.0 0.0 0.00 0.00 0.00 100 1017.8
20260831025259 84 156 0.0 0.0 0.00 0.00 0.00 100 1017.8
20260831024802 84 156 0.0 0.0 0.00 0.00 0.00 100 1017.9
20260831024535 84 156 0.0 0.0 0.00 0.00 0.00 100 1017.9
20260831023742 85 156 0.0 0.0 0.00 0.00 0.00 100 1017.9
20260831023242 85 156 0.0 0.0 0.00 0.00 0.00 100 1017.9
20260831022737 85 156 0.0 0.0 0.00 0.00 0.00 100 1018.0
20260831022242 85 156 0.0 0.0 0.00 0.00 0.00 100 1017.9
20260831021721 85 156 0.0 0.0 0.00 0.00 0.00 100 1017.9
20260831021213 85 156 0.0 0.0 0.00 0.00 0.00 100 1017.9
20260831020713 85 156 0.0 0.0 0.00 0.00 0.00 100 1018.0
20260831020158 85 156 0.0 4.0 0.00 0.00 0.00 100 1018.0
20260831015637 85 156 0.0 4.0 0.00 0.00 0.00 100 1017.9
20260831015355 85 156 0.0 3.0 0.00 0.00 0.00 100 1017.9
20260831014619 85 156 0.0 5.0 0.00 0.00 0.00 100 1017.9
20260831014339 85 156 0.0 1.0 0.00 0.00 0.00 100 1017.8
20260831013553 85 156 0.0 0.0 0.00 0.00 0.00 100 1017.9
20260831013234 85 156 0.0 0.0 0.00 0.00 0.00 100 1018.0
20260831012507 85 156 0.0 2.0 0.00 0.00 0.00 100 1018.0
20260831012008 85 156 0.0 4.0 0.00 0.00 0.00 100 1018.0
20260831011502 85 156 0.0 4.0 0.00 0.00 0.00 100 1017.9
20260831011003 85 156 0.0 3.0 0.00 0.00 0.00 100 1017.9
20260831010726 85 156 0.0 1.0 0.00 0.00 0.00 100 1017.8
20260831010008 85 156 0.0 1.0 0.00 0.00 0.00 100 1017.8
20260831005457 85 156 0.0 0.0 0.00 0.00 0.00 100 1017.8
20260831004953 85 156 0.0 0.0 0.00 0.00 0.00 100 1017.8
20260831004454 85 156 0.0 0.0 0.00 0.00 0.00 100 1017.8
20260831004151 85 156 0.0 0.0 0.00 0.00 0.00 100 1017.8
20260831003409 85 156 0.0 1.0 0.00 0.00 0.00 100 1017.7
20260831002909 85 156 0.0 1.0 0.00 0.00 0.00 100 1017.8
20260831002407 85 156 0.0 0.0 0.00 0.00 0.00 100 1017.7
20260831001845 85 156 0.0 0.0 0.00 0.00 0.00 100 1017.8
20260831001542 86 156 0.0 0.0 0.00 0.00 0.00 100 1017.8
20260831001035 86 156 0.0 0.0 0.00 0.00 0.00 100 1017.7
20260830235755 85 156 0.0 0.0 0.00 0.00 0.00 100 1017.6
20260830235243 85 156 0.0 0.0 0.00 0.00 0.00 100 1017.5
20260830235009 85 156 0.0 0.0 0.00 0.00 0.00 100 1017.5
20260830234208 85 156 0.0 0.0 0.00 0.00 0.00 100 1017.5
20260830233708 86 156 0.0 0.0 0.00 0.00 0.00 100 1017.5
20260830233156 85 156 0.0 0.0 0.00 0.00 0.00 100 1017.5
20260830232657 85 156 0.0 0.0 0.00 0.00 0.00 100 1017.6
20260830232151 85 156 0.0 0.0 0.00 0.00 0.00 100 1017.6
20260830231642 85 156 0.0 0.0 0.00 0.00 0.00 100 1017.6
20260830231140 85 156 0.0 0.0 0.00 0.00 0.00 100 1017.5
20260830230621 85 156 0.0 5.0 0.00 0.00 0.00 100 1017.6
20260830230116 85 156 0.0 5.0 0.00 0.00 0.00 100 1017.5
20260830225606 85 156 0.0 3.0 0.00 0.00 0.00 100 1017.6
20260830225321 85 157 0.0 4.0 0.00 0.00 0.00 100 1017.5
20260830224603 84 156 0.0 5.0 0.00 0.00 0.00 100 1017.5
20260830224051 84 156 0.0 5.0 0.00 0.00 0.00 100 1017.5
20260830223545 84 156 1.0 5.0 0.00 0.00 0.00 100 1017.5
20260830223038 84 156 1.0 8.0 0.00 0.00 0.00 100 1017.4
20260830222533 84 156 1.0 8.0 0.00 0.00 0.00 100 1017.4
20260830222033 85 154 0.0 4.0 0.00 0.00 0.00 100 1017.5
20260830221525 85 154 1.0 8.0 0.00 0.00 0.00 100 1017.4
20260830221023 85 153 1.0 8.0 0.00 0.00 0.00 100 1017.4
20260830220805 85 150 1.0 6.0 0.00 0.00 0.00 100 1017.5
20260830220022 85 150 0.0 5.0 0.00 0.00 0.00 100 1017.4
20260830215520 85 148 1.0 6.0 0.00 0.00 0.00 100 1017.4
20260830215012 85 149 1.0 7.0 0.00 0.00 0.00 100 1017.3
20260830214735 86 155 1.0 7.0 0.00 0.00 0.00 100 1017.3
20260830214006 86 187 1.0 7.0 0.00 0.00 0.00 100 1017.3
20260830213454 86 183 1.0 8.0 0.00 0.00 0.00 100 1017.2
20260830212952 86 183 1.0 8.0 0.00 0.00 0.00 100 1017.2
20260830212453 86 144 1.0 6.0 0.00 0.00 0.00 100 1017.1
20260830211950 86 141 0.0 8.0 0.00 0.00 0.00 100 1017.1
20260830211448 86 178 1.0 8.0 0.00 0.00 0.00 100 1017.1
20260830210949 86 178 1.0 9.0 0.00 0.00 0.00 100 1017.2
20260830210701 86 128 1.0 9.0 0.00 0.00 0.00 100 1017.2
20260830205943 86 147 1.0 11.0 0.00 0.00 0.00 100 1017.1
20260830205704 86 122 1.0 11.0 0.00 0.00 0.00 100 1017.2
20260830204936 86 144 1.0 8.0 0.00 0.00 0.00 100 1017.3
20260830204420 86 140 1.0 9.0 0.00 0.00 0.00 100 1017.4
20260830203916 86 138 1.0 9.0 0.00 0.00 0.00 100 1017.4
20260830203415 86 120 1.0 9.0 0.00 0.00 0.00 100 1017.4
20260830202916 86 145 1.0 9.0 0.00 0.00 0.00 100 1017.5
20260830202415 86 144 1.0 9.0 0.00 0.00 0.00 100 1017.5
20260830201911 87 146 0.0 5.0 0.00 0.00 0.00 100 1017.6
20260830201627 87 147 1.0 8.0 0.00 0.00 0.00 100 1017.6
20260830200906 87 146 0.0 8.0 0.00 0.00 0.00 100 1017.6
20260830200617 87 146 1.0 6.0 0.00 0.00 0.00 100 1017.8
20260830195851 86 146 1.0 10.0 0.00 0.00 0.00 100 1017.8
20260830195345 86 138 1.0 10.0 0.00 0.00 0.00 100 1018.0
20260830194836 86 115 1.0 8.0 0.00 0.00 0.00 100 1018.0
20260830194327 87 151 1.0 10.0 0.00 0.00 0.00 100 1018.1
20260830194056 87 113 1.0 10.0 0.00 0.00 0.00 100 1018.2
20260830193324 87 121 1.0 9.0 0.00 0.00 0.00 100 1018.2
20260830192823 87 184 1.0 7.0 0.00 0.00 0.00 100 1018.3
20260830192318 87 190 1.0 7.0 0.00 0.00 0.00 100 1018.3
20260830191812 87 130 1.0 9.0 0.00 0.00 0.00 100 1018.3
20260830191304 86 127 1.0 10.0 0.00 0.00 0.00 100 1018.4
20260830190759 87 152 1.0 10.0 0.00 0.00 0.00 100 1018.5
20260830190300 87 137 1.0 8.0 0.00 0.00 0.00 100 1018.6
20260830185800 86 157 1.0 5.0 0.00 0.00 0.00 100 1018.8
20260830185256 87 157 1.0 5.0 0.00 0.00 0.00 100 1018.9
20260830185027 87 157 1.0 6.0 0.00 0.00 0.00 100 1018.8
20260830184248 87 157 0.0 6.0 0.00 0.00 0.00 100 1018.8
20260830184010 87 167 1.0 6.0 0.00 0.00 0.00 100 1019.0
20260830183511 87 167 1.0 7.0 0.00 0.00 0.00 100 1019.1
20260830182737 87 171 1.0 9.0 0.00 0.00 0.00 100 1019.1
20260830182246 88 167 1.0 7.0 0.00 0.00 0.00 100 1019.3
20260830182230 87 154 1.0 9.0 0.00 0.00 0.00 100 1019.2
20260830181220 89 168 0.0 6.0 0.00 0.00 0.00 100 1019.3
20260830180714 88 259 0.0 4.0 0.00 0.00 0.00 100 1019.3
20260830180437 87 259 0.0 4.0 0.00 0.00 0.00 100 1019.4
20260830175707 87 261 0.0 3.0 0.00 0.00 0.00 100 1019.5
20260830175230 87 261 0.0 7.0 0.00 0.00 0.00 100 1019.6
20260830175213 87 260 0.0 7.0 0.00 0.00 0.00 100 1019.6
20260830174202 87 260 1.0 7.0 0.00 0.00 0.00 100 1019.6
20260830173922 87 260 1.0 7.0 0.00 0.00 0.00 100 1019.7
20260830173157 87 237 0.0 3.0 0.00 0.00 0.00 100 1019.8
20260830172946 87 165 0.0 3.0 0.00 0.00 0.00 100 1019.8
20260830172200 86 165 0.0 4.0 0.00 0.00 0.00 100 1019.9
20260830171656 87 163 1.0 4.0 0.00 0.00 0.00 100 1019.9
20260830171427 87 163 1.0 8.0 0.00 0.00 0.00 100 1020.0
20260830170706 87 158 1.0 8.0 0.00 0.00 0.00 100 1020.1
20260830170154 86 224 0.0 6.0 0.00 0.00 0.00 100 1020.2
20260830170146 86 224 0.0 6.0 0.00 0.00 0.00 100 1020.3
20260830165148 85 235 0.0 5.0 0.00 0.00 0.00 100 1020.2
20260830164634 85 254 0.0 6.0 0.00 0.00 0.00 100 1020.2
20260830164132 85 254 0.0 7.0 0.00 0.00 0.00 100 1020.2
20260830163631 85 159 0.0 7.0 0.00 0.00 0.00 100 1020.1
20260830163124 85 157 1.0 6.0 0.00 0.00 0.00 100 1020.2
20260830162619 85 156 1.0 7.0 0.00 0.00 0.00 100 1020.3
20260830162110 84 156 1.0 7.0 0.00 0.00 0.00 100 1020.3
20260830161612 84 155 1.0 7.0 0.00 0.00 0.00 100 1020.3
20260830161120 84 170 1.0 4.0 0.00 0.00 0.00 100 1020.4
20260830161110 84 256 1.0 5.0 0.00 0.00 0.00 100 1020.2
20260830160110 84 170 1.0 4.0 0.00 0.00 0.00 100 1020.4
20260830155821 84 208 0.0 3.0 0.00 0.00 0.00 100 1020.5
20260830155058 84 209 0.0 5.0 0.00 0.00 0.00 100 1020.5
20260830154557 84 209 1.0 5.0 0.00 0.00 0.00 100 1020.5
20260830154051 83 209 1.0 4.0 0.00 0.00 0.00 100 1020.5
20260830153544 83 209 0.0 5.0 0.00 0.00 0.00 100 1020.6
20260830153040 83 209 0.0 5.0 0.00 0.00 0.00 100 1020.7
20260830152548 83 209 1.0 7.0 0.00 0.00 0.00 100 1020.7
20260830152039 83 209 1.0 8.0 0.00 0.00 0.00 100 1020.7
20260830151531 83 253 1.0 8.0 0.00 0.00 0.00 100 1020.7
20260830151021 83 211 0.0 5.0 0.00 0.00 0.00 100 1020.7
20260830150518 83 212 1.0 6.0 0.00 0.00 0.00 100 1020.6
20260830150014 83 211 1.0 7.0 0.00 0.00 0.00 100 1020.6
20260830145511 83 211 1.0 7.0 0.00 0.00 0.00 100 1020.7
20260830145012 83 179 1.0 7.0 0.00 0.00 0.00 100 1020.8
20260830144515 83 163 1.0 7.0 0.00 0.00 0.00 100 1020.8
20260830144010 83 182 0.0 7.0 0.00 0.00 0.00 100 1020.6
20260830143459 83 209 0.0 6.0 0.00 0.00 0.00 100 1020.6
20260830142959 83 209 0.0 6.0 0.00 0.00 0.00 100 1020.7
20260830142437 83 275 0.0 5.0 0.00 0.00 0.00 100 1020.7
20260830141933 83 193 1.0 8.0 0.00 0.00 0.00 100 1020.7
20260830141428 83 173 1.0 8.0 0.00 0.00 0.00 100 1020.8
20260830140925 83 165 0.0 6.0 0.00 0.00 0.00 100 1020.9
20260830140701 83 165 0.0 6.0 0.00 0.00 0.00 100 1021.0
20260830135914 83 165 0.0 6.0 0.00 0.00 0.00 100 1021.0
20260830135641 82 165 0.0 6.0 0.00 0.00 0.00 100 1021.0
20260830135142 81 163 0.0 4.0 0.00 0.00 0.00 100 1021.1
20260830134410 80 163 1.0 10.0 0.00 0.00 0.00 100 1021.1
20260830133901 79 185 0.0 10.0 0.00 0.00 0.00 100 1021.1
20260830133402 78 161 1.0 6.0 0.00 0.00 0.00 100 1021.1
20260830132852 78 159 1.0 6.0 0.00 0.00 0.00 100 1021.2
20260830132352 77 159 1.0 5.0 0.00 0.00 0.00 100 1021.4
20260830131904 76 248 0.0 4.0 0.00 0.00 0.00 100 1021.5
20260830131846 77 199 0.0 5.0 0.00 0.00 0.00 100 1021.5
20260830131112 76 248 0.0 3.0 0.00 0.00 0.00 100 1021.5
20260830130405 76 248 0.0 4.0 0.00 0.00 0.00 100 1021.6
20260830130345 76 248 0.0 4.0 0.00 0.00 0.00 100 1021.6
20260830125334 75 258 0.0 2.0 0.00 0.00 0.00 100 1021.7
20260830124821 75 259 0.0 3.0 0.00 0.00 0.00 100 1021.7
20260830124324 75 259 0.0 4.0 0.00 0.00 0.00 100 1021.7
20260830124049 75 267 0.0 4.0 0.00 0.00 0.00 100 1021.7
20260830123309 75 269 0.0 1.0 0.00 0.00 0.00 100 1021.8
20260830122814 74 269 0.0 1.0 0.00 0.00 0.00 100 1021.8
20260830122308 74 269 0.0 0.0 0.00 0.00 0.00 100 1021.9
20260830121821 74 269 0.0 0.0 0.00 0.00 0.00 100 1022.0
20260830121311 74 269 0.0 0.0 0.00 0.00 0.00 100 1021.9
20260830120803 74 269 0.0 0.0 0.00 0.00 0.00 100 1022.0
20260830120302 73 269 0.0 0.0 0.00 0.00 0.00 100 1022.0
20260830120033 73 269 0.0 0.0 0.00 0.00 0.00 100 1022.1
20260830115306 73 269 0.0 0.0 0.00 0.00 0.00 100 1021.9
20260830114751 73 269 0.0 0.0 0.00 0.00 0.00 100 1021.9
20260830114238 73 269 0.0 0.0 0.00 0.00 0.00 100 1021.8
20260830113735 73 269 0.0 0.0 0.00 0.00 0.00 100 1021.8
20260830113224 73 269 0.0 0.0 0.00 0.00 0.00 100 1021.8
20260830112712 73 269 0.0 0.0 0.00 0.00 0.00 100 1021.7
20260830112211 73 269 0.0 0.0 0.00 0.00 0.00 100 1021.8
20260830111708 72 269 0.0 0.0 0.00 0.00 0.00 100 1021.7
20260830111420 72 269 0.0 0.0 0.00 0.00 0.00 100 1021.7
20260830110657 72 269 0.0 0.0 0.00 0.00 0.00 100 1021.6
20260830110208 72 269 0.0 0.0 0.00 0.00 0.00 100 1021.6
20260830105652 72 269 0.0 0.0 0.00 0.00 0.00 100 1021.5
20260830105147 72 269 0.0 0.0 0.00 0.00 0.00 100 1021.4
20260830104644 72 269 0.0 0.0 0.00 0.00 0.00 100 1021.3
20260830104129 72 269 0.0 0.0 0.00 0.00 0.00 100 1021.2
20260830103620 72 269 0.0 0.0 0.00 0.00 0.00 100 1021.3
20260830103114 73 269 0.0 0.0 0.00 0.00 0.00 100 1021.2
20260830102608 73 269 0.0 0.0 0.00 0.00 0.00 100 1021.3
20260830102113 73 269 0.0 0.0 0.00 0.00 0.00 100 1021.2
20260830101600 73 269 0.0 0.0 0.00 0.00 0.00 100 1021.1
20260830101100 73 269 0.0 0.0 0.00 0.00 0.00 100 1021.2
20260830100800 73 269 0.0 0.0 0.00 0.00 0.00 100 1021.2
20260830100032 73 269 0.0 0.0 0.00 0.00 0.00 100 1021.1
20260830095501 73 269 0.0 0.0 0.00 0.00 0.00 100 1021.2
20260830094957 73 269 0.0 0.0 0.00 0.00 0.00 100 1021.3
20260830094441 73 269 0.0 0.0 0.00 0.00 0.00 100 1021.3
20260830094203 73 269 0.0 0.0 0.00 0.00 0.00 100 1021.3
20260830093432 73 269 0.0 0.0 0.00 0.00 0.00 100 1021.3
20260830092930 73 269 0.0 0.0 0.00 0.00 0.00 100 1021.3
20260830092420 73 269 0.0 0.0 0.00 0.00 0.00 100 1021.3
20260830091917 73 269 0.0 0.0 0.00 0.00 0.00 100 1021.3
20260830091416 73 269 0.0 0.0 0.00 0.00 0.00 100 1021.2
20260830090905 73 269 0.0 0.0 0.00 0.00 0.00 100 1021.2
20260830090358 73 269 0.0 0.0 0.00 0.00 0.00 100 1021.1
20260830085903 74 269 0.0 0.0 0.00 0.00 0.00 100 1021.1
20260830085355 74 269 0.0 0.0 0.00 0.00 0.00 100 1021.1
20260830084852 74 269 0.0 0.0 0.00 0.00 0.00 100 1021.1
20260830084345 74 269 0.0 0.0 0.00 0.00 0.00 100 1021.2
20260830083843 74 269 0.0 0.0 0.00 0.00 0.00 100 1021.2
20260830083337 74 269 0.0 0.0 0.00 0.00 0.00 100 1021.2
20260830083315 74 269 0.0 0.0 0.00 0.00 0.00 100 1021.3
20260830082307 74 269 0.0 0.0 0.00 0.00 0.00 100 1021.3
20260830081804 74 269 0.0 0.0 0.00 0.00 0.00 100 1021.3
20260830081254 74 269 0.0 0.0 0.00 0.00 0.00 100 1021.3
20260830080748 74 269 0.0 0.0 0.00 0.00 0.00 100 1021.3
20260830080252 74 269 0.0 0.0 0.00 0.00 0.00 100 1021.3
20260830075731 74 269 0.0 0.0 0.00 0.00 0.00 100 1021.3
20260830075225 74 269 0.0 0.0 0.00 0.00 0.00 100 1021.3
20260830074718 74 269 0.0 0.0 0.00 0.00 0.00 100 1021.2
20260830074220 74 269 0.0 0.0 0.00 0.00 0.00 100 1021.2
20260830073702 74 269 0.0 0.0 0.00 0.00 0.00 100 1021.2
20260830073200 74 269 0.0 0.0 0.00 0.00 0.00 100 1021.2
20260830072654 74 269 0.0 0.0 0.00 0.00 0.00 100 1021.1
20260830072151 74 269 0.0 0.0 0.00 0.00 0.00 100 1021.2
20260830071635 74 269 0.0 0.0 0.00 0.00 0.00 100 1021.3
20260830071137 74 269 0.0 0.0 0.00 0.00 0.00 100 1021.4
20260830070632 74 269 0.0 0.0 0.00 0.00 0.00 100 1021.5
20260830070127 74 269 0.0 0.0 0.00 0.00 0.00 100 1021.5
20260830065617 74 269 0.0 0.0 0.00 0.00 0.00 100 1021.5
20260830065110 74 269 0.0 0.0 0.00 0.00 0.00 100 1021.5
20260830064606 74 269 0.0 0.0 0.00 0.00 0.00 100 1021.5
20260830064107 74 269 0.0 0.0 0.00 0.00 0.00 100 1021.5
20260830063618 74 269 0.0 0.0 0.00 0.00 0.00 100 1021.5
20260830063321 74 269 0.0 0.0 0.00 0.00 0.00 100 1021.6
20260830063237 74 269 0.0 0.0 0.00 0.00 0.00 100 1021.7
20260830062036 74 269 0.0 0.0 0.00 0.00 0.00 100 1021.7
20260830061543 74 269 0.0 0.0 0.00 0.00 0.00 100 1021.7
20260830061018 74 269 0.0 0.0 0.00 0.00 0.00 100 1021.8
20260830060510 74 269 0.0 0.0 0.00 0.00 0.00 100 1021.7
20260830055951 74 269 0.0 0.0 0.00 0.00 0.00 100 1021.8
20260830055440 75 269 0.0 0.0 0.00 0.00 0.00 100 1021.8
20260830054937 75 269 0.0 0.0 0.00 0.00 0.00 100 1021.8
20260830054655 75 269 0.0 0.0 0.00 0.00 0.00 100 1021.8
20260830053928 75 269 0.0 0.0 0.00 0.00 0.00 100 1021.8
20260830053417 75 269 0.0 0.0 0.00 0.00 0.00 100 1021.8
20260830052915 75 269 0.0 0.0 0.00 0.00 0.00 100 1021.8
20260830052623 75 269 0.0 0.0 0.00 0.00 0.00 100 1021.9
20260830051903 75 269 0.0 0.0 0.00 0.00 0.00 100 1021.9
20260830051351 75 270 0.0 0.0 0.00 0.00 0.00 100 1021.8
20260830051137 75 269 0.0 0.0 0.00 0.00 0.00 100 1022.0
20260830050844 75 269 0.0 0.0 0.00 0.00 0.00 100 1021.9
20260830045831 75 269 0.0 0.0 0.00 0.00 0.00 100 1022.1
20260830045338 75 269 0.0 0.0 0.00 0.00 0.00 100 1022.0
20260830044827 75 270 0.0 0.0 0.00 0.00 0.00 100 1022.0
20260830044317 76 269 0.0 0.0 0.00 0.00 0.00 100 1022.0
20260830043818 76 269 0.0 0.0 0.00 0.00 0.00 100 1021.9
20260830043315 76 269 0.0 0.0 0.00 0.00 0.00 100 1021.9
20260830042817 76 269 0.0 0.0 0.00 0.00 0.00 100 1021.8
20260830042316 76 269 0.0 0.0 0.00 0.00 0.00 100 1021.7